Location: Presov
(49.0000°N, 21.2500°E)
Time: 05:51:55
(UTC+02:00)

Transit 2A Rocket - Pass Details

Date: 21 April 2021
Orbit: 594 x 909 km, 66.7° (Epoch: 07 May)

Event Time Altitude Azimuth Distance (km) Brightness Sun altitude
Rises 22:25:40 0° 329° (NNW) 2,856 9.5 -22.6°
Reaches altitude 10° 22:28:15 10° 344° (NNW) 1,970 8.1 -22.9°
Maximum altitude 22:31:51 24° 39° (NE) 1,313 6.4 -23.2°
Enters shadow 22:33:13 21° 65° (ENE) 1,444 6.3 -23.3°
Drops below altitude 10° 22:35:36 10° 93° (E) 2,063 - -23.5°
Sets 22:38:22 0° 107° (ESE) 3,025 - -23.8°
